Weather History for Naples, Italy

Change the Weather History Date:

Saturday, February 1, 2014

  Actual Average Record
Temperature  
Mean Temperature 59 °F -  
Max Temperature 63 °F 56 °F 63 °F (2014)
Min Temperature 55 °F 40 °F 30 °F (2004)
Degree Days  
Heating Degree Days 6    
Growing Degree Days 9 (Base 50)    
Moisture  
Dew Point 55 °F    
Average Humidity 85    
Maximum Humidity 100    
Minimum Humidity 50    
Precipitation  
Precipitation 0.20 in 0.13 in - ()
Sea Level Pressure  
Sea Level Pressure 29.81 in    
Wind  
Wind Speed 8 mph ()    
Max Wind Speed 17 mph    
Max Gust Speed 34 mph    
Visibility 4.1 miles    
Events Rain    
Averages and records for this station are not official NWS values.
T = Trace of Precipitation, MM = Missing Value Source: Averaged Metar Reports

Daily Weather History Graph

Daily Weather History Graph

Search for Another Location

Airport:

Trip Planner

Search our weather history database for the weather conditions in past years. The results will help you decide how hot, cold, wet, or windy it might be!

Date:

Astronomy

Feb. 01, 2014 Rise Set
Actual Time 7:13 AM CET 5:19 PM CET
Civil Twilight 6:44 AM CET 5:48 PM CET
Nautical Twilight 6:11 AM CET 6:21 PM CET
Astronomical Twilight 5:39 AM CET 6:54 PM CET
Moon 7:50 AM CET (2/1) 7:36 PM CET (2/1)
Length of Visible Light 11h 04m
Length of Day
10h 06m
Waxing Crescent, 4% of the Moon is Illuminated
Feb 1
Waxing Crescent
Feb 6
First Quarter
Feb 15
Full
Feb 22
Last Quarter
Mar 1
New

Hourly Weather History & Observations

Time (CET) Temp. Dew Point Humidity Pressure Visibility Wind Dir Wind Speed Gust Speed Precip Events Conditions
12:20 AM 62.6 °F 53.6 °F 72% 29.80 in 5.0 mi SSE 17.3 mph 34.5 mph N/A   Drizzle
12:50 AM 62.6 °F 48.2 °F 59% 29.77 in 5.0 mi SSE 12.7 mph 24.2 mph N/A   Drizzle
1:00 AM 63 °F 49 °F 50% 29.80 in 6 mi SSE 12.7 mph - - Rain Drizzle
1:20 AM 62.6 °F 53.6 °F 72% 29.80 in 6.2 mi South 13.8 mph 25.3 mph N/A   Mostly Cloudy
1:50 AM 60.8 °F 51.8 °F 72% 29.80 in 6.2 mi SSE 9.2 mph - N/A   Mostly Cloudy
2:20 AM 60.8 °F 53.6 °F 77% 29.83 in 6.2 mi SSE 6.9 mph - N/A   Mostly Cloudy
2:50 AM 60.8 °F 53.6 °F 77% 29.83 in 6.2 mi South 10.4 mph - N/A   Mostly Cloudy
3:20 AM 60.8 °F 51.8 °F 72% 29.80 in 6.2 mi SSE 10.4 mph - N/A   Mostly Cloudy
3:50 AM 62.6 °F 53.6 °F 72% 29.80 in 6.2 mi SSE 11.5 mph 24.2 mph N/A   Mostly Cloudy
4:00 AM 62 °F 54 °F 68% 29.82 in 6 mi SSE 11.5 mph - -   Mostly Cloudy
4:20 AM 60.8 °F 55.4 °F 82% 29.80 in 6.2 mi South 12.7 mph 27.6 mph N/A   Mostly Cloudy
4:50 AM 60.8 °F 55.4 °F 82% 29.80 in 6.2 mi South 12.7 mph - N/A   Mostly Cloudy
5:20 AM 60.8 °F 55.4 °F 82% 29.83 in 6.2 mi South 11.5 mph - N/A   Mostly Cloudy
5:50 AM 60.8 °F 55.4 °F 82% 29.83 in 6.2 mi South 10.4 mph - N/A   Mostly Cloudy
6:20 AM 60.8 °F 55.4 °F 82% 29.83 in 5.0 mi South 11.5 mph - N/A   Mostly Cloudy
6:50 AM 60.8 °F 55.4 °F 82% 29.83 in 5.0 mi South 11.5 mph - N/A   Partly Cloudy
7:00 AM 60 °F 56 °F 81% 29.84 in 5 mi South 10.4 mph - -   Mist
7:20 AM 60.8 °F 55.4 °F 82% 29.83 in 3.7 mi South 9.2 mph - N/A   Mostly Cloudy
7:50 AM 60.8 °F 55.4 °F 82% 29.86 in 3.1 mi South 11.5 mph - N/A   Mostly Cloudy
8:20 AM 60.8 °F 55.4 °F 82% 29.86 in 3.1 mi South 8.1 mph - N/A   Mostly Cloudy
8:50 AM 60.8 °F 55.4 °F 82% 29.86 in 3.1 mi South 10.4 mph - N/A   Mostly Cloudy
9:20 AM 60.8 °F 55.4 °F 82% 29.86 in 3.7 mi South 9.2 mph - N/A   Mostly Cloudy
9:50 AM 60.8 °F 55.4 °F 82% 29.86 in 3.7 mi South 9.2 mph - N/A   Mostly Cloudy
10:00 AM 60 °F 56 °F 82% 29.87 in 4 mi South 8.1 mph - -   Mist
10:20 AM 60.8 °F 55.4 °F 82% 29.86 in 3.7 mi SSE 3.5 mph - N/A   Mostly Cloudy
10:50 AM 60.8 °F 55.4 °F 82% 29.86 in 3.7 mi SSE 5.8 mph - N/A   Mostly Cloudy
11:20 AM 62.6 °F 57.2 °F 82% 29.86 in 3.7 mi South 3.5 mph - N/A   Mostly Cloudy
11:50 AM 62.6 °F 57.2 °F 82% 29.86 in 3.7 mi SW 6.9 mph - N/A   Mostly Cloudy
12:20 PM 60.8 °F 55.4 °F 82% 29.86 in 3.7 mi SW 9.2 mph - N/A   Mostly Cloudy
12:50 PM 62.6 °F 55.4 °F 77% 29.83 in 4.3 mi SSW 5.8 mph - N/A   Mostly Cloudy
1:00 PM 62 °F 54 °F 68% 29.84 in 4 mi South 6.9 mph - -   Mist
1:20 PM 60.8 °F 55.4 °F 82% 29.83 in 4.3 mi SSW 6.9 mph - N/A Rain Light Rain
1:50 PM - - N/A% - 3.1 mi South 5.8 mph - N/A Rain Light Rain
2:20 PM 57.2 °F 55.4 °F 94% 29.83 in 2.5 mi SSW 8.1 mph - N/A Rain Light Rain
2:50 PM 59.0 °F 55.4 °F 88% 29.80 in 2.5 mi SW 3.5 mph - N/A Rain Light Rain
3:20 PM 59.0 °F 55.4 °F 88% 29.80 in 2.5 mi Variable 1.2 mph - N/A   Mostly Cloudy
3:50 PM 57.2 °F 55.4 °F 94% 29.80 in 2.5 mi NNE 3.5 mph - N/A Rain Light Rain
4:00 PM 57 °F 55 °F 92% 29.81 in 2 mi NNE 2.3 mph - - Rain Light Rain
4:20 PM 57.2 °F 55.4 °F 94% 29.80 in 2.5 mi Variable 2.3 mph - N/A Rain Light Rain
4:50 PM 57.2 °F 55.4 °F 94% 29.80 in 2.5 mi Variable 2.3 mph - N/A Rain Light Rain
5:20 PM 57.2 °F 55.4 °F 94% 29.80 in 2.5 mi Variable 2.3 mph - N/A Rain Light Rain
5:50 PM 57.2 °F 55.4 °F 94% 29.80 in 2.5 mi Calm Calm - N/A Rain Light Rain
6:20 PM 57.2 °F 55.4 °F 94% 29.77 in 3.7 mi North 3.5 mph - N/A Rain Light Rain
6:50 PM 57.2 °F 55.4 °F 94% 29.77 in 4.3 mi Variable 2.3 mph - N/A   Mostly Cloudy
7:00 PM 57 °F 55 °F 89% 29.79 in 4 mi North 2.3 mph - -   Scattered Clouds
7:20 PM 57.2 °F 55.4 °F 94% 29.77 in 4.3 mi Variable 2.3 mph - N/A Rain Light Rain
7:50 PM 57.2 °F 55.4 °F 94% 29.77 in 4.3 mi North 1.2 mph - N/A Rain Light Rain
8:20 PM 55.4 °F 55.4 °F 100% 29.77 in 4.3 mi Variable 2.3 mph - N/A   Mostly Cloudy
8:50 PM 57.2 °F 55.4 °F 94% 29.77 in 4.3 mi Calm Calm - N/A   Mostly Cloudy
9:20 PM 55.4 °F 55.4 °F 100% 29.77 in 4.3 mi Variable 2.3 mph - N/A   Mostly Cloudy
9:50 PM 55.4 °F 55.4 °F 100% 29.77 in 4.3 mi NNW 3.5 mph - N/A   Mostly Cloudy
10:00 PM 56 °F 55 °F 94% 29.79 in 4 mi North 3.5 mph - -   Scattered Clouds
10:20 PM 55.4 °F 55.4 °F 100% 29.77 in 3.1 mi East 3.5 mph - N/A Rain Light Rain
10:50 PM 55.4 °F 55.4 °F 100% 29.77 in 1.9 mi Variable 1.2 mph - N/A Rain Light Rain
11:20 PM 55.4 °F 53.6 °F 94% 29.74 in 1.9 mi North 4.6 mph - N/A Rain Light Rain
11:50 PM 55.4 °F 53.6 °F 94% 29.74 in 1.9 mi North 6.9 mph - N/A Rain Light Rain